Temp
4 4 4 4 4 5 5 5 5 5 5 5 5 6 8 8 9 9 8 12 13 13 13 13 14 14 16 17 18 20 22 24 25 25 26 25 25 25 24 25 25 25 24 22 20
4 4 4 4 5 5 5 5 5 5 5 4 4 4 6 7 8 8 9 12 12 13 12 12 14 15 17 18 18 21 22 24 26 26 25 25 25 25 25 26 26 26 24 21 19
4 4 4 4 4 4 5 5 5 4 4 4 3 4 5 6 7 11 9 10 13 12 12 11 12 15 17 18 19 20 22 24 22 22 23 24 24 24 25 26 27 27 24 23 21
3 3 4 4 4 4 4 4 4 4 4 4 3 3 4 4 12 10 10 10 10 9 9 10 12 15 17 19 19 19 21 22 22 21 21 23 23 24 24 25 25 24 24 23 23
3 3 3 3 4 4 4 4 4 4 4 4 3 3 3 5 8 9 9 10 9 9 11 11 13 16 19 19 19 19 21 21 20 20 21 21 22 23 23 23 23 23 23 23 24
3 3 3 3 3 3 3 4 4 3 3 3 3 3 3 5 6 7 8 9 8 10 11 12 13 15 18 19 19 20 20 20 20 19 20 20 21 21 22 22 22 23 24 24 24
3 3 3 3 3 3 4 4 4 3 3 3 3 2 2 4 5 5 6 8 7 9 11 12 12 14 16 18 18 18 19 20 20 20 19 19 20 21 22 22 23 24 24 24 24
3 3 3 3 3 3 3 3 4 3 3 3 2 1 2 3 4 4 6 7 7 7 8 10 10 13 15 17 17 18 18 19 21 21 19 19 22 25 23 23 23 24 24 25 25
3 3 3 3 3 3 3 4 4 4 3 3 2 2 4 4 4 5 6 6 8 8 8 9 11 13 15 16 18 18 20 19 21 22 21 20 22 25 24 22 23 24 25 25 25
2 3 3 3 3 3 3 3 3 3 2 2 2 3 4 6 5 5 6 6 7 9 9 9 11 14 15 16 18 19 19 21 21 22 20 21 21 24 22 23 23 24 25 25 25
2 3 3 2 2 2 3 2 3 4 2 3 3 3 4 5 5 5 6 7 7 9 11 11 11 12 16 17 18 21 20 20 21 21 19 20 21 23 23 22 23 23 24 24 24
2 2 2 2 2 1 0 1 -1 -0 1 3 2 2 3 3 3 6 6 7 8 10 12 13 12 15 16 17 17 17 17 18 20 19 18 20 21 22 22 21 21 22 23 24 24
2 2 2 2 2 0 0 -0 -0 -0 1 4 3 3 4 2 4 6 7 8 9 11 12 13 15 15 15 15 15 16 17 18 18 18 18 18 18 20 22 22 21 21 22 23 24
2 2 2 2 1 1 1 0 -0 0 5 6 7 6 5 2 5 6 7 8 9 10 12 12 15 14 15 14 15 15 17 17 18 17 17 20 18 21 23 23 23 22 22 22 22
2 2 2 2 2 1 1 2 1 1 4 6 7 6 6 5 4 7 6 7 9 7 11 11 12 13 14 14 15 15 18 16 16 16 16 18 17 20 23 23 23 24 23 22 21
2 2 2 2 2 2 2 2 1 4 3 5 7 7 8 7 5 5 7 7 8 10 9 10 11 12 14 14 15 16 15 15 15 16 14 17 18 19 21 22 23 24 23 21 20
2 2 2 2 1 2 2 2 5 4 5 5 6 7 7 7 6 4 4 7 8 9 10 10 10 12 12 13 14 14 13 11 11 13 14 18 17 18 21 22 23 21 21 20 19
2 2 2 2 2 3 2 6 4 2 4 6 6 7 6 7 7 5 5 4 7 8 9 11 11 12 13 12 14 14 14 13 12 14 16 18 16 19 21 22 21 20 20 20 19
2 2 2 2 2 3 4 4 3 4 5 5 7 6 6 7 6 7 4 5 5 7 6 7 10 10 9 10 9 13 12 15 14 15 15 18 19 19 20 20 21 20 19 18 16
2 2 1 2 3 3 4 2 2 4 4 5 5 5 5 6 5 5 6 6 5 7 7 6 7 9 10 10 11 9 12 12 12 10 11 15 17 19 18 17 16 16 15 15 14
1 2 2 3 3 4 3 2 3 4 4 4 5 5 5 5 5 4 5 6 6 7 7 6 6 9 10 10 8 9 9 6 9 11 11 13 16 19 15 16 17 15 14 14 14
1 2 2 2 3 -0 2 2 1 4 4 4 5 5 5 5 5 5 4 5 5 6 5 5 5 7 8 9 9 7 5 5 6 8 9 11 14 13 13 13 14 14 13 13 13
0 1 2 2 2 1 1 0 2 4 4 4 4 5 5 5 3 5 5 5 5 5 4 5 4 6 7 7 8 5 4 5 5 4 6 8 11 14 13 13 13 13 13 13 12
0 2 1 0 0 3 2 1 1 2 3 3 4 4 5 4 5 3 5 5 5 5 4 4 5 5 6 6 7 6 7 7 4 4 7 7 10 12 13 13 12 11 11 12 11
0 0 -0 1 1 3 2 2 2 3 3 3 4 4 4 2 3 3 5 6 6 5 5 4 3 6 6 7 7 7 7 8 7 7 6 9 10 12 12 12 12 11 11 11 12
-0 -0 -1 2 1 2 1 1 3 3 3 3 3 4 4 3 3 2 4 4 4 6 5 3 3 4 2 6 6 6 7 8 8 8 8 9 9 11 11 11 11 11 11 10 11
-1 -1 0 1 2 2 3 3 3 3 3 3 3 3 3 4 3 3 3 3 4 4 4 2 3 3 3 6 5 4 7 8 9 9 9 8 10 12 11 12 11 11 11 10 10
Height
1515 1515 1513 1511 1510 1508 1507 1505 1504 1502 1501 1500 1498 1496 1496 1497 1497 1498 1496 1497 1498 1498 1499 1501 1502 1503 1504 1502 1502 1501 1494 1483 1480 1482 1480 1483 1484 1485 1485 1484 1484 1485 1486 1486 1486
1515 1514 1512 1510 1509 1507 1505 1504 1502 1500 1499 1497 1495 1494 1492 1491 1492 1491 1492 1490 1489 1492 1494 1497 1499 1501 1500 1498 1497 1494 1485 1476 1474 1478 1481 1481 1482 1482 1484 1480 1481 1483 1486 1485 1485
1515 1513 1512 1510 1508 1507 1505 1502 1500 1498 1497 1495 1493 1491 1491 1489 1491 1485 1483 1481 1478 1483 1487 1491 1495 1497 1495 1493 1489 1486 1475 1474 1481 1484 1482 1480 1480 1481 1481 1477 1477 1478 1482 1484 1485
1514 1512 1510 1508 1507 1505 1503 1501 1499 1496 1494 1492 1491 1489 1489 1490 1487 1479 1480 1479 1478 1480 1484 1485 1489 1490 1488 1484 1485 1482 1478 1478 1479 1482 1481 1479 1480 1476 1478 1477 1477 1479 1481 1481 1483
1514 1512 1510 1508 1506 1503 1501 1498 1496 1494 1492 1489 1488 1486 1487 1487 1480 1481 1478 1477 1478 1480 1482 1483 1482 1482 1477 1478 1480 1476 1475 1475 1480 1479 1477 1478 1475 1475 1471 1475 1476 1476 1477 1478 1478
1513 1511 1508 1506 1503 1501 1498 1496 1494 1491 1488 1487 1485 1485 1486 1482 1476 1474 1474 1473 1476 1478 1479 1480 1478 1477 1473 1472 1472 1468 1472 1472 1475 1476 1476 1475 1473 1474 1466 1471 1472 1472 1471 1472 1474
1512 1510 1507 1505 1502 1499 1495 1492 1489 1487 1485 1483 1482 1482 1480 1474 1472 1470 1469 1469 1471 1473 1475 1477 1476 1475 1471 1470 1469 1470 1471 1468 1468 1470 1472 1475 1466 1456 1465 1466 1466 1465 1465 1467 1468
1511 1509 1506 1503 1500 1496 1492 1488 1484 1481 1480 1479 1479 1479 1472 1469 1468 1466 1465 1463 1466 1467 1470 1473 1474 1472 1469 1466 1465 1466 1468 1462 1453 1462 1469 1472 1448 1448 1450 1457 1456 1460 1461 1461 1462
1511 1508 1505 1502 1498 1493 1489 1485 1480 1476 1475 1476 1477 1476 1468 1466 1464 1462 1463 1460 1462 1463 1466 1469 1471 1468 1466 1463 1459 1455 1444 1449 1449 1449 1456 1461 1439 1443 1446 1453 1451 1451 1453 1454 1456
1510 1508 1504 1500 1496 1490 1486 1482 1478 1475 1475 1475 1475 1477 1465 1464 1462 1460 1458 1457 1456 1459 1463 1464 1464 1459 1456 1451 1436 1436 1442 1437 1437 1442 1450 1447 1442 1441 1448 1447 1446 1445 1445 1447 1449
1509 1507 1504 1500 1495 1489 1483 1481 1482 1479 1477 1479 1477 1472 1464 1462 1459 1455 1455 1454 1453 1453 1450 1452 1455 1445 1430 1437 1436 1427 1433 1436 1434 1441 1448 1442 1438 1437 1439 1444 1443 1442 1442 1443 1444
1508 1506 1503 1499 1495 1491 1488 1486 1488 1490 1482 1476 1474 1469 1465 1462 1455 1450 1451 1452 1449 1441 1445 1445 1437 1425 1436 1435 1441 1439 1441 1437 1435 1440 1449 1437 1433 1432 1433 1436 1440 1438 1437 1437 1441
1507 1505 1502 1498 1495 1492 1490 1489 1487 1486 1484 1473 1470 1466 1463 1459 1453 1449 1450 1446 1444 1438 1432 1427 1416 1432 1435 1435 1437 1439 1436 1436 1442 1440 1442 1443 1438 1430 1426 1429 1432 1432 1432 1433 1435
1506 1504 1501 1498 1497 1493 1493 1490 1487 1486 1474 1470 1466 1465 1462 1457 1452 1448 1447 1448 1444 1434 1431 1430 1421 1424 1426 1430 1432 1433 1433 1438 1437 1443 1440 1430 1428 1415 1410 1413 1418 1421 1424 1428 1432
1505 1502 1500 1496 1496 1495 1493 1489 1487 1488 1470 1473 1467 1464 1459 1460 1461 1446 1447 1445 1438 1438 1432 1423 1425 1422 1422 1418 1425 1422 1427 1435 1440 1438 1440 1431 1432 1406 1405 1405 1403 1408 1417 1423 1427
1503 1501 1499 1497 1494 1493 1490 1487 1487 1481 1477 1475 1468 1464 1458 1455 1457 1450 1443 1444 1439 1434 1437 1426 1426 1425 1419 1423 1422 1427 1432 1435 1439 1438 1442 1420 1427 1395 1401 1393 1398 1402 1410 1417 1422
1502 1500 1498 1497 1495 1491 1488 1488 1482 1478 1485 1476 1472 1467 1459 1456 1454 1457 1452 1441 1436 1429 1421 1425 1428 1424 1426 1420 1422 1424 1432 1444 1448 1441 1423 1410 1423 1397 1389 1392 1394 1403 1408 1415 1419
1501 1499 1498 1496 1494 1491 1488 1485 1484 1493 1485 1479 1474 1467 1464 1461 1455 1460 1456 1453 1446 1440 1427 1413 1415 1418 1418 1422 1415 1416 1417 1415 1427 1416 1408 1407 1410 1387 1393 1397 1398 1405 1410 1413 1416
1499 1498 1497 1496 1493 1491 1491 1486 1492 1488 1487 1482 1472 1468 1463 1462 1461 1452 1461 1456 1455 1449 1445 1433 1418 1422 1427 1426 1428 1412 1414 1407 1416 1405 1408 1393 1388 1389 1390 1393 1397 1403 1406 1410 1413
1499 1497 1497 1495 1493 1491 1490 1495 1496 1493 1490 1485 1477 1475 1469 1466 1465 1460 1457 1459 1457 1453 1450 1448 1437 1426 1425 1425 1423 1426 1417 1420 1419 1427 1423 1399 1389 1387 1389 1399 1406 1410 1412 1413 1413
1498 1498 1496 1494 1493 1493 1491 1495 1493 1493 1492 1488 1481 1478 1475 1471 1469 1467 1462 1460 1459 1455 1452 1450 1445 1427 1423 1422 1427 1423 1419 1431 1421 1412 1411 1403 1387 1381 1394 1396 1397 1408 1411 1412 1413
1497 1498 1495 1493 1496 1498 1495 1495 1496 1491 1491 1489 1486 1481 1477 1473 1470 1466 1467 1463 1465 1461 1456 1456 1451 1435 1427 1432 1433 1435 1440 1439 1432 1415 1416 1409 1395 1401 1406 1407 1409 1412 1412 1412 1412
1497 1497 1495 1492 1492 1495 1497 1497 1494 1490 1488 1487 1484 1484 1481 1477 1478 1470 1468 1468 1467 1465 1464 1458 1454 1438 1428 1436 1436 1442 1446 1444 1443 1445 1429 1418 1401 1401 1405 1408 1411 1413 1411 1410 1410
1496 1495 1496 1495 1496 1493 1494 1495 1494 1491 1489 1488 1486 1484 1480 1479 1476 1474 1469 1468 1467 1465 1463 1462 1455 1451 1440 1439 1437 1438 1433 1435 1447 1445 1423 1425 1410 1402 1402 1407 1411 1413 1413 1411 1409
1495 1496 1496 1494 1496 1494 1494 1492 1490 1488 1488 1487 1482 1482 1481 1483 1480 1475 1469 1465 1464 1463 1460 1462 1459 1447 1444 1441 1438 1435 1433 1429 1428 1429 1432 1409 1405 1400 1405 1408 1407 1410 1409 1408 1406
1494 1495 1496 1493 1494 1493 1494 1492 1487 1486 1487 1483 1483 1480 1481 1480 1478 1475 1471 1468 1464 1461 1461 1464 1459 1453 1454 1441 1436 1431 1424 1421 1420 1418 1416 1411 1407 1397 1403 1406 1405 1405 1405 1404 1403
1491 1492 1493 1492 1490 1490 1486 1486 1486 1487 1486 1484 1483 1482 1480 1476 1476 1474 1472 1470 1466 1462 1459 1463 1459 1456 1443 1434 1434 1434 1418 1414 1410 1407 1407 1406 1400 1394 1394 1398 1398 1399 1399 1399 1399
Wind_Speed
11 11 12 13 14 14 15 15 15 16 16 17 18 21 25 25 25 21 20 23 17 19 18 16 13 9 8 10 13 13 11 16 21 14 10 6 9 7 5 7 3 2 4 3 7
11 12 13 13 14 15 16 16 16 16 17 18 19 20 19 21 24 24 28 28 29 24 24 17 17 12 15 14 12 16 15 22 13 13 9 8 10 5 7 11 5 6 5 5 9
12 13 13 14 14 15 15 16 18 18 18 17 18 20 18 15 15 15 10 11 23 19 24 16 16 14 20 18 21 16 23 16 9 19 16 14 13 12 12 14 12 8 5 5 5
14 15 16 16 17 16 16 16 16 18 19 18 16 21 18 9 6 8 10 8 8 2 13 13 16 19 16 21 23 17 21 25 17 15 13 13 15 16 17 19 8 10 13 9 8
13 13 14 15 16 17 19 19 19 18 18 18 17 19 15 10 18 7 15 12 5 1 7 16 21 23 22 18 22 22 20 16 21 20 23 22 23 22 26 20 20 20 18 16 13
15 15 17 18 19 19 20 20 21 21 19 17 16 16 13 21 10 15 21 21 10 8 9 10 11 24 14 24 21 11 25 25 21 20 22 19 20 22 20 17 21 24 24 20 17
16 17 18 19 20 22 24 25 24 21 20 17 14 14 16 24 20 22 17 25 14 12 11 10 11 15 14 12 27 19 17 12 19 21 15 16 24 32 28 26 21 16 20 19 17
16 18 19 20 22 24 25 27 26 22 18 14 13 13 15 17 21 23 16 24 20 18 16 12 8 13 14 15 8 19 17 19 22 20 14 13 28 8 10 28 30 28 26 24 23
15 17 17 19 22 24 25 23 20 16 12 12 11 11 22 10 13 9 11 18 17 18 18 15 12 18 15 15 15 16 20 24 22 13 22 21 27 18 10 16 20 21 25 26 26
15 17 18 20 23 25 22 17 12 9 8 5 6 9 11 7 12 13 12 12 13 16 16 18 14 14 16 17 23 25 25 21 19 15 17 20 26 17 7 13 18 20 21 22 26
15 16 18 20 22 24 18 11 8 2 15 9 19 21 26 20 22 19 11 8 13 20 21 24 16 20 30 26 23 19 16 18 19 13 13 21 20 20 21 20 18 20 20 21 26
14 16 17 19 15 17 16 9 7 6 9 8 12 14 15 12 16 10 6 10 13 20 23 16 24 32 24 21 21 22 17 16 12 7 9 14 17 14 16 19 24 26 27 25 22
12 15 16 17 11 15 17 15 10 5 5 6 8 8 11 15 8 8 6 7 12 17 26 26 25 25 23 24 22 23 24 17 13 11 12 9 17 20 22 26 26 27 29 27 26
11 14 15 16 8 14 8 15 7 7 4 7 10 5 10 10 4 15 10 11 8 13 19 22 27 9 27 28 24 25 25 20 20 15 16 13 17 18 19 20 21 29 33 30 26
9 12 13 13 11 7 14 19 6 3 4 14 10 10 7 7 18 3 6 9 14 5 10 15 12 24 18 29 26 25 16 17 18 18 16 21 12 21 21 23 25 23 23 20 19
8 11 13 11 12 14 15 16 1 4 4 7 8 13 17 11 16 17 1 4 6 13 13 15 7 6 25 16 18 18 14 14 13 13 16 26 18 22 20 28 20 16 15 13 13
7 10 9 11 10 14 16 4 3 3 8 10 12 15 13 12 11 12 11 8 3 8 16 15 14 11 4 14 17 17 18 7 9 11 20 19 16 25 4 11 8 6 5 7 9
6 8 7 10 12 13 10 3 4 2 5 11 12 12 8 14 10 14 9 8 12 5 6 9 10 14 6 11 19 26 22 11 17 15 19 19 13 17 12 13 5 11 25 14 22
6 7 5 9 11 11 4 2 2 3 6 10 11 9 9 13 8 4 6 9 10 13 5 5 5 3 3 6 4 22 23 25 20 16 10 14 18 23 22 18 19 18 16 12 7
6 5 2 7 10 6 1 3 1 3 8 6 7 6 11 14 11 10 6 8 9 9 8 5 6 3 2 4 8 8 10 17 14 18 23 17 21 12 7 10 8 7 6 5 5
5 2 3 8 6 2 1 1 2 3 6 4 6 6 8 10 9 5 8 6 11 14 6 8 2 3 6 5 6 3 7 4 4 12 9 15 19 6 9 10 7 5 9 8 7
2 2 5 4 0 2 1 1 3 2 2 2 5 6 7 9 6 6 5 6 10 18 8 6 5 5 6 5 5 3 4 5 3 3 8 13 13 7 10 10 9 5 9 10 9
2 2 4 3 1 1 2 1 3 3 2 2 3 3 6 7 4 7 8 9 10 15 6 6 2 5 6 4 5 4 3 3 4 1 3 3 4 10 5 5 6 12 15 12 12
1 1 3 4 2 1 0 1 2 4 5 3 4 4 6 6 4 8 8 4 18 14 10 6 3 4 8 10 7 9 7 5 2 4 5 8 17 16 16 14 11 16 18 13 12
2 1 0 0 1 1 2 3 3 2 4 4 3 5 5 3 10 5 10 15 10 3 4 3 5 9 13 14 14 14 15 15 15 17 10 20 21 22 17 17 20 20 19 14 13
2 3 1 2 3 4 2 4 6 3 3 5 6 4 5 9 11 15 15 13 8 7 3 4 5 10 16 16 14 17 21 21 20 20 20 24 25 28 26 24 20 17 14 14 19
6 4 2 2 3 4 4 4 3 1 5 6 7 9 12 12 13 15 16 19 17 17 15 5 5 6 13 11 11 13 16 18 20 20 17 20 22 26 25 20 22 24 21 21 22
Wind_Direction
1 356 350 346 341 336 332 331 326 320 316 316 315 302 282 279 276 281 270 260 265 262 261 268 268 254 245 222 215 220 238 234 227 236 227 209 228 210 239 260 306 76 51 327 172
5 2 359 354 348 342 335 329 325 323 316 312 313 315 313 290 282 278 278 272 263 254 254 255 250 237 230 220 210 213 226 236 241 244 238 237 231 205 250 218 222 191 57 55 163
14 9 3 359 355 351 344 338 329 322 318 313 309 312 321 311 299 270 229 257 250 238 238 240 235 221 229 223 215 221 237 235 241 245 247 248 241 231 261 250 240 214 356 7 194
7 3 360 356 352 350 347 342 335 327 319 314 307 306 312 319 256 179 184 128 92 159 219 217 215 211 223 225 224 240 236 243 231 234 243 235 257 252 250 251 243 277 290 289 251
5 1 356 352 348 343 339 338 337 331 321 312 307 304 318 264 244 265 226 243 317 240 200 219 213 212 220 226 230 229 245 226 241 244 249 259 254 259 257 251 259 269 270 269 258
1 358 356 351 346 340 335 328 327 326 319 312 303 297 289 270 263 259 247 252 271 254 245 221 225 219 243 230 223 220 233 241 234 233 249 252 252 250 249 248 254 258 258 253 243
357 356 353 349 345 339 334 328 321 315 314 307 298 290 270 260 283 284 266 248 256 248 238 232 237 205 219 233 232 243 239 230 232 234 240 252 259 242 247 250 248 243 241 241 238
352 352 351 346 342 337 331 326 317 302 299 292 289 282 269 277 280 276 269 256 253 238 233 234 243 235 227 232 214 222 232 240 230 218 219 198 255 225 233 225 237 239 245 242 239
349 351 348 346 341 334 332 334 328 314 290 280 287 273 284 285 292 283 267 251 244 239 228 227 233 227 205 225 217 213 229 222 239 211 213 208 248 249 228 219 236 235 239 240 239
351 352 351 349 343 338 342 344 2 18 349 303 270 281 250 321 316 299 304 243 234 213 203 205 212 217 217 208 216 215 227 244 225 213 219 221 242 247 207 226 233 244 237 237 239
352 352 353 350 349 357 4 5 8 331 356 323 303 294 292 306 296 286 270 274 215 212 205 198 201 214 214 216 233 241 246 234 235 216 246 231 242 235 230 237 244 245 236 238 239
351 352 353 352 360 6 14 35 5 309 310 345 326 311 306 306 287 293 215 227 204 210 207 193 217 217 224 223 228 238 232 240 239 212 237 247 244 236 233 240 242 244 244 240 239
348 349 353 351 360 15 28 11 346 343 266 288 326 305 329 324 268 308 226 236 240 215 206 211 222 223 220 226 223 226 228 223 234 188 232 258 257 248 244 245 238 239 242 245 240
346 348 353 356 15 0 12 1 344 337 284 26 353 336 326 347 266 314 246 249 226 227 212 229 233 205 216 220 216 225 222 241 241 239 247 216 268 256 241 232 234 236 238 242 245
344 347 355 357 343 350 336 345 328 280 345 341 340 328 308 47 328 172 281 249 248 228 213 206 226 240 221 220 215 234 232 216 237 240 252 249 257 255 249 247 242 239 234 242 243
342 344 351 346 344 340 337 339 318 243 19 340 345 345 0 22 18 357 31 218 278 259 218 263 312 288 228 221 229 223 229 213 221 237 240 241 244 264 247 246 248 250 247 243 243
338 343 351 347 340 340 339 329 260 18 333 344 340 339 353 0 30 11 359 61 359 252 229 217 238 240 280 241 200 196 190 182 210 217 236 237 230 243 111 1 265 327 287 278 209
333 339 348 343 341 345 347 278 53 303 320 325 331 324 2 3 15 44 22 36 22 339 301 231 208 205 177 229 220 211 194 207 211 218 235 217 237 231 228 279 280 301 236 262 239
332 332 325 344 345 346 328 32 48 312 342 326 318 342 3 8 334 350 41 30 11 21 348 334 211 56 84 325 328 207 223 224 253 264 266 245 226 251 267 271 277 277 270 298 312
335 322 273 340 347 357 31 94 220 305 324 314 340 359 348 355 360 356 44 19 359 13 347 3 286 48 349 220 257 234 270 218 227 234 240 237 232 237 137 100 79 62 36 29 36
341 286 283 331 354 12 67 133 239 293 318 309 331 320 340 349 342 6 13 37 14 8 354 340 327 314 280 31 15 336 240 247 278 227 221 228 235 264 310 295 247 22 12 11 7
332 268 322 353 290 31 138 302 320 283 282 288 292 307 328 339 331 350 343 12 354 350 350 11 319 312 354 352 284 37 5 21 329 82 224 245 247 96 85 76 63 29 355 354 346
319 289 340 60 169 130 272 266 264 274 307 295 288 323 323 329 328 342 340 360 3 345 342 335 55 302 158 174 137 42 26 33 335 321 258 275 241 143 84 357 354 337 340 332 333
15 225 26 59 77 83 340 242 279 239 267 270 288 268 310 323 318 299 301 332 328 328 328 256 281 292 302 325 313 295 277 262 156 262 269 255 268 265 289 298 288 309 317 316 312
105 142 107 143 172 254 275 259 269 251 242 258 244 255 319 294 311 306 323 317 327 352 329 354 282 298 292 298 297 287 278 267 251 242 259 270 275 276 283 291 302 296 290 287 291
171 170 205 264 255 245 195 233 247 266 239 272 258 279 285 296 296 298 307 304 301 299 339 3 281 301 289 283 280 276 267 264 265 260 258 261 270 277 286 287 279 283 284 284 290
195 201 211 188 219 248 241 242 247 247 290 268 292 296 286 299 305 294 288 281 272 277 278 275 270 272 279 288 303 283 265 263 265 263 255 262 268 276 283 285 283 286 286 282 278